This is the latest recevied weather packets stored in our database for station/object KA9CBS. If no packets are shown the sender has not sent any weather packets the latest 10 day(s).
| Time | Temp. | Humidity | Pressure | Rain* | Wind** | Luminosity | Snow |
|---|---|---|---|---|---|---|---|
| 1778129236 | 7.78° C | 89% | 1018.1 hPa | 0 mm | - | 0 W/m² | - |
| 1778128932 | 7.78° C | 89% | 1018.2 hPa | 0 mm | - | 0 W/m² | - |
| 1778128629 | 7.78° C | 90% | 1018.2 hPa | 0 mm | - | 0 W/m² | - |
| 1778128326 | 7.78° C | 90% | 1018.1 hPa | 0 mm | - | 0 W/m² | - |
| 1778128022 | 8.33° C | 89% | 1017.9 hPa | 0 mm | - | 0 W/m² | - |
| 1778127717 | 8.33° C | 86% | 1018 hPa | 0 mm | - | 0 W/m² | - |
| 1778127415 | 8.33° C | 84% | 1018 hPa | 0 mm | - | 0 W/m² | - |
| 1778127110 | 7.78° C | 88% | 1018.1 hPa | 0 mm | - | 0 W/m² | - |
| 1778126809 | 7.78° C | 91% | 1018.2 hPa | 0 mm | - | 0 W/m² | - |
| 1778126504 | 7.78° C | 91% | 1018.1 hPa | 0 mm | - | 0 W/m² | - |
| 1778126200 | 7.78° C | 90% | 1018.1 hPa | 0 mm | - | 0 W/m² | - |
| 1778125896 | 8.33° C | 90% | 1018.1 hPa | 0 mm | - | 0 W/m² | - |
| 1778125593 | 8.33° C | 89% | 1018.2 hPa | 0 mm | - | 0 W/m² | - |
| 1778125291 | 8.33° C | 87% | 1018.3 hPa | 0 mm | - | 0 W/m² | - |
| 1778124989 | 8.89° C | 86% | 1018 hPa | 0 mm | - | 0 W/m² | - |
| 1778124686 | 8.89° C | 84% | 1018.2 hPa | 0 mm | - | 0 W/m² | - |
| 1778124384 | 8.89° C | 83% | 1018 hPa | 0 mm | - | 0 W/m² | - |
| 1778124079 | 8.89° C | 83% | 1017.9 hPa | 0 mm | - | 0 W/m² | - |
| 1778123776 | 8.89° C | 85% | 1017.9 hPa | 0 mm | - | 0 W/m² | - |
| 1778123473 | 8.89° C | 86% | 1018 hPa | 0 mm | - | 0 W/m² | - |
| 1778123170 | 8.89° C | 87% | 1017.8 hPa | 0 mm | - | 0 W/m² | - |
| 1778122868 | 8.89° C | 86% | 1018.2 hPa | 0 mm | - | 0 W/m² | - |
| 1778122564 | 8.89° C | 85% | 1018.3 hPa | 0 mm | - | 0 W/m² | - |
| 1778122261 | 8.89° C | 85% | 1018.4 hPa | 0 mm | - | 0 W/m² | - |
| 1778121959 | 8.89° C | 85% | 1018 hPa | 0 mm | - | 0 W/m² | - |
* Rain latest hour (hover to see other rain measurements)
** Current wind speed in m/s (hover to see current wind gust speed)